Regional Weather Roundup
Issued by NWS

Home | Current Version | Previous Version | Graphics & Text | Print | Product List | Glossary On
Versions: 1 2 3 4 5 6 7 8 9 10 11 12 13 14 15 16 17 18 19 20 21 22 23 24 25 26 27 28 29 30 31 32 33 34 35 36 37 38 39 40 41 42 43 44 45 46 47 48 49 50
000
ASUS45 KBOI 011810
RWRID

IDAHO REGIONAL WEATHER ROUNDUP
NATIONAL WEATHER SERVICE BOISE ID
1200 PM MDT SAT AUG 01 2015

NOTE: "FAIR" INDICATES FEW OR NO CLOUDS BELOW 12000 FEET
WITH NO SIGNIFICANT WEATHER AND/OR OBSTRUCTIONS TO VISIBILITY

IDZ012-014-011900-
SOUTHWEST IDAHO


CITY           SKY/WX    TMP DP  RH WIND       PRES   REMARKS
BOISE          SUNNY     93  37  14 VRB3      30.03F
CALDWELL       SUNNY     90  43  19 SE6       30.02F
MOUNTAIN HOME  SUNNY     89  37  15 E10       30.04F
$$

IDZ016-017-011900-
SOUTHCENTRAL IDAHO


CITY           SKY/WX    TMP DP  RH WIND       PRES   REMARKS
BURLEY         SUNNY     85  46  25 VRB5      30.12F
JEROME         SUNNY     88  34  14 E8        30.13F
TWIN FALLS     SUNNY     89  36  15 E9        30.11F
$$

IDZ019>023-011900-
SOUTHEAST IDAHO


CITY           SKY/WX    TMP DP  RH WIND       PRES   REMARKS
IDAHO FALLS    SUNNY     83  42  23 CALM      30.19F
POCATELLO      SUNNY     84  37  18 NW6       30.17F
REXBURG        SUNNY     82  40  22 VRB3      30.19F
$$

IDZ006-010-011-018-031-032-011900-
CENTRAL IDAHO MOUNTAINS


CITY           SKY/WX    TMP DP  RH WIND       PRES   REMARKS
MCCALL         SUNNY     79  42  26 S5        30.17S
HAILEY         MOSUNNY   82  43  24 SE12      30.24S
STANLEY          N/A     77  32  19 N6        30.31F
SALMON         SUNNY     75  41  29 NW3       30.13F
CHALLIS        SUNNY     78  37  22 N5        30.20F
$$

IDZ002-004-006-007-026-011900-
NORTHERN IDAHO


CITY           SKY/WX    TMP DP  RH WIND       PRES   REMARKS
LEWISTON       SUNNY     89  40  17 NW5       29.95F
LOWELL           N/A     80  45  28 CALM      29.97F
COEUR D`ALENE  SUNNY     88  43  20 SE5       29.98S
MULLAN PASS    SUNNY     78  28  16 CALM      30.23S
$$


USA.gov is the U.S. government's official web portal to all federal, state and local government web resources and services.